Simultaneous Nadir Overpasses (SNOs) Predictions

Prediction of SNOs between LANDSAT-8 and NOAA-19 Satellite Orbit:

Table of predicted SNOs for the next 14.0 days since TLE Epoch: 11/9/2024
Index Date (LANDSAT-8) Time (LANDSAT-8) Lat,Lon (LANDSAT-8) SZA (LANDSAT-8 ) Date (NOAA-19) Time (NOAA-19) Lat,Lon (NOAA-19) SZA (NOAA-19 ) Distance(km) Time Diff (sec)
1 11/11/2024 08:21:24 -80.23, -95.78 80.67 11/11/2024 08:20:15 -80.22, -95.93 80.72 2.79 69
2 11/11/2024 09:10:47 80.33, 72.80 99.51 11/11/2024 09:11:12 80.32, 72.78 99.52 0.72 25
3 11/13/2024 15:33:57 80.29, -23.39 100.04 11/13/2024 15:33:44 80.28, -23.38 100.03 0.32 13
4 11/13/2024 16:23:14 -80.60, 147.39 79.41 11/13/2024 16:24:28 -80.51, 147.64 79.42 10.19 74
5 11/15/2024 21:57:06 80.24,-119.63 100.52 11/15/2024 21:56:16 80.23,-119.70 100.49 1.53 50
6 11/15/2024 22:46:31 -80.30, 48.63 79.37 11/15/2024 22:47:08 -80.30, 48.51 79.37 2.38 37
7 11/18/2024 05:09:37 -80.28, -47.35 78.87 11/18/2024 05:09:37 -80.27, -47.44 78.88 1.94 0
8 11/20/2024 11:32:44 -80.22,-143.69 78.47 11/20/2024 11:32:08 -80.21,-143.84 78.50 3.02 36
9 11/20/2024 12:22:07 80.31, 24.80 101.70 11/20/2024 12:23:07 80.30, 24.65 101.70 3.10 60
10 11/22/2024 17:55:49 -80.18, 120.22 78.05 11/22/2024 17:54:37 -80.19, 120.25 78.07 0.68 72



Historial Predications of SNOs between LANDSAT-8 and NOAA-19
